• Join FlightAware (Why Join?)
  • Login
  • US Flag 
01:21PM EST


 

Airport Tracker/Info


-or-


 

Live Flight TrackerFlight Track Log ✈ SWA1245 ✈ 12-Jul-2014 ✈ KBWI - KISP

Flight Track Log - Related Links

Times and Time Zones

All times are in EDT time to prevent confusion due to time zone crossing. See the SWA1245 flight status page for this flight to view local times or setup timezone preferences in your user account.

Time Position Orientation Groundspeed Altitude Reporting Facility
EDT Latitude Longitude Course Direction KTS MPH feet Rate Location/Type
09:28PM 39.1667 -76.6333 119° Southeast 166 191 1,800  Level Potomac TRACON
09:30PM 39.1017 -76.4850 119° Southeast 228 262 6,600 2,602 Climbing Washington Center
09:31PM 39.0481 -76.4042 130° Southeast 267 307 10,300 2,975 Climbing Washington Center
09:32PM 39.0300 -76.2917 102° East 297 342 12,500 2,746 Climbing Washington Center
09:33PM 39.0392 -76.1636 85° East 310 357 15,700 2,678 Climbing Washington Center
09:34PM 39.0458 -76.0272 86° East 349 402 17,900 2,628 Climbing Washington Center
09:35PM 39.0547 -75.8856 85° East 373 429 21,000 2,488 Climbing Washington Center
09:36PM 39.0569 -75.7467 89° East 387 445 23,000 1,000 Climbing Washington Center
09:37PM 39.0656 -75.6075 85° East 387 445 23,000  Level Washington Center
09:38PM 39.0694 -75.4686 88° East 387 445 23,000  Level Washington Center
09:39PM 39.0756 -75.3294 87° East 387 445 23,000  Level Washington Center
09:40PM 39.0814 -75.1906 87° East 382 440 23,000  Level Washington Center
09:41PM 39.0892 -75.0514 86° East 382 440 23,000  Level Washington Center
09:42PM 39.0925 -74.9097 88° East 388 447 23,000  Level Washington Center
09:43PM 39.1106 -74.7758 80° East 382 440 23,000  Level Washington Center
09:44PM 39.1806 -74.6706 49° Northeast 362 417 23,000  Level Washington Center
09:46PM 39.3047 -74.4814 50° Northeast 377 434 23,000  Level New York Center
09:47PM 39.3725 -74.3775 50° Northeast 382 440 23,000 -51 Level New York Center
09:48PM 39.4428 -74.2683 50° Northeast 387 445 22,900 -443 Descending New York Center
09:49PM 39.5061 -74.1692 50° Northeast 380 437 22,100 -1,122 Descending New York Center
09:50PM 39.5694 -74.0697 50° Northeast 367 422 20,600 -1,385 Descending New York Center
09:51PM 39.6169 -73.9925 51° Northeast 360 414 19,700 -1,143 Descending Boston Center
09:52PM 39.6806 -73.8919 51° Northeast 362 417 18,600 -984 Descending Boston Center
09:53PM 39.7428 -73.7950 50° Northeast 355 409 17,700 -1,100 Descending Boston Center
09:54PM 39.8025 -73.6989 51° Northeast 345 397 16,400 -1,350 Descending Boston Center
09:55PM 39.8631 -73.6061 50° Northeast 339 390 15,000 -1,289 Descending Boston Center
09:56PM 39.9403 -73.5106 43° Northeast 331 381 13,800 -1,082 Descending Boston Center
09:57PM 40.0053 -73.4306 43° Northeast 327 376 12,800 -968 Descending Boston Center
09:58PM 40.0708 -73.3514 43° Northeast 324 373 11,800 -968 Descending Boston Center
09:59PM 40.1356 -73.2739 42° Northeast 320 368 10,800 -992 Descending Boston Center
10:00PM 40.1956 -73.2003 43° Northeast 299 344 9,800 -893 Descending Boston Center
10:01PM 40.2528 -73.1322 42° Northeast 281 323 9,000 -393 Descending Boston Center
10:02PM 40.3072 -73.0656 43° Northeast 271 312 9,000  Level Boston Center
10:03PM 40.3614 -72.9986 43° Northeast 268 308 9,000 -738 Level Boston Center
10:04PM 40.4311 -72.9700 17° North 264 304 7,500 -1,210 Descending Boston Center
10:05PM 40.5017 -72.9494 12° North 261 300 6,600 -1,131 Descending Boston Center
10:06PM 40.5753 -72.9553 357° North 261 300 5,200 -1,296 Descending Boston Center
10:07PM 40.6483 -72.9594 358° North 261 300 3,900 -1,339 Descending Boston Center
10:08PM 40.7217 -72.9600 360° North 262 302 2,500 -992 Descending Boston Center
10:09PM 40.8067 -72.9594 360° North 256 295 1,900 -700 Descending Boston Center
10:10PM 40.8544 -72.9992 328° Northwest 219 252 1,100 -350 Descending Boston Center
10:11PM 40.8433 -73.0417 251° West 159 183 1,200 -295 Climbing Boston Center
10:12PM 40.8175 -73.0744 224° Southwest 137 158 500 -492 Descending Boston Center
10:13PM 40.7925 -73.1075 225° Southwest 136 157 200 -295 Descending Boston Center
10:15PM 40.7833 -73.1000 North  Level FlightAware Approximate